Wind_Speed
15 15 13 12 12 12 11 10 11 12 14 14 18 19 17 17 15 15 14 19 20 19 17 13 10 8 5 6 2 3 4 6 9 25 21 19 20 20 16 9 10 12 14 17 19
15 15 15 14 12 11 11 10 9 11 13 14 15 19 18 18 16 15 19 20 22 20 18 14 10 9 5 6 5 3 3 4 13 26 24 21 17 19 16 14 13 16 17 19 19
15 16 16 15 14 12 10 9 8 9 10 13 15 17 20 18 17 17 19 20 21 20 17 16 13 10 8 6 4 2 1 4 16 27 26 18 17 14 13 12 11 16 18 21 22
15 15 16 15 14 13 11 9 8 8 9 11 13 15 20 19 10 20 19 19 19 20 20 21 17 13 10 7 5 2 6 10 20 28 23 20 17 16 11 10 15 16 14 20 22
15 15 15 15 13 12 11 9 8 7 8 10 12 15 19 21 21 19 21 20 20 21 22 22 20 12 8 8 6 3 5 11 10 29 21 18 16 14 15 16 16 21 23 21 21
14 14 14 14 13 12 10 9 8 7 6 9 11 14 18 18 21 15 22 21 20 20 21 22 21 13 10 8 4 7 4 11 16 27 20 21 18 19 14 18 23 26 24 21 20
14 13 13 12 12 11 10 9 7 6 5 6 9 12 18 21 22 18 22 23 21 19 18 24 22 14 9 8 7 8 6 12 20 23 19 16 18 18 21 26 29 26 24 23 22
13 12 12 11 9 9 8 7 7 6 5 3 5 10 17 21 21 19 21 23 24 22 23 26 24 13 11 14 10 11 6 10 13 22 17 24 21 21 26 28 25 23 25 26 25
11 11 10 9 8 7 7 7 7 6 6 4 1 10 9 18 19 17 18 20 26 24 23 26 25 13 13 12 12 12 6 8 13 15 14 24 22 24 29 27 24 24 26 24 23
10 10 9 9 8 7 7 7 8 3 4 2 6 8 8 11 19 17 16 19 25 26 23 26 22 16 15 17 16 15 11 13 10 12 13 25 14 34 33 30 25 24 26 22 21
9 9 9 9 9 7 7 7 10 9 3 4 7 8 9 14 17 18 15 17 22 23 16 21 20 25 20 15 8 8 7 11 14 12 5 7 11 32 33 33 27 25 25 24 23
8 9 8 8 8 5 6 8 8 8 3 0 5 4 8 16 16 16 15 12 19 19 17 18 24 22 15 13 7 9 9 9 11 13 10 8 9 34 41 36 27 27 25 25 23
6 8 7 6 6 3 5 6 7 11 9 5 8 7 7 12 11 14 13 10 15 18 20 17 17 19 15 12 10 8 8 10 6 14 4 11 5 26 36 40 29 27 27 24 22
6 6 6 3 3 3 5 4 7 10 6 7 6 5 7 10 8 12 11 9 12 17 16 16 13 19 18 15 13 10 3 6 12 10 6 16 5 6 27 38 35 31 27 27 27
6 5 4 1 3 1 4 7 6 5 1 3 3 7 10 4 8 12 11 8 10 14 15 13 15 18 20 18 13 4 8 7 11 5 10 9 7 5 10 42 40 39 29 28 26
6 5 1 1 4 6 7 5 4 1 5 3 4 3 7 5 4 14 13 9 8 12 14 6 15 13 17 16 16 9 9 6 8 2 7 12 6 9 19 28 34 35 34 29 28
4 4 4 8 12 9 7 6 1 4 5 3 3 7 8 9 8 12 13 11 7 12 17 9 11 14 16 17 12 16 18 10 8 7 4 6 11 5 11 20 30 34 34 34 29
6 7 15 13 12 8 6 6 4 4 5 4 4 9 7 8 9 9 11 12 9 10 13 17 18 17 14 19 15 20 23 10 7 7 8 7 9 6 17 12 19 32 26 31 33
9 13 12 9 8 9 7 3 4 3 3 3 3 6 7 8 6 6 9 11 11 9 7 15 15 12 15 16 14 21 26 20 17 10 8 11 7 10 15 17 19 27 33 33 37
13 12 8 5 4 9 7 7 5 6 3 2 2 3 4 6 10 8 7 9 10 9 8 7 11 13 16 17 20 17 20 24 18 9 11 9 10 10 13 15 17 21 34 37 26
10 6 6 7 8 8 8 9 8 8 7 3 1 2 2 3 5 8 7 7 11 10 7 9 9 12 14 22 21 22 18 25 23 24 13 9 9 13 15 15 14 14 26 32 37
8 3 9 14 9 8 6 7 7 4 7 4 4 3 2 1 4 7 7 4 13 8 7 8 9 13 15 14 21 22 26 22 24 21 18 21 2 10 17 15 17 16 16 27 29
6 7 7 10 4 6 6 4 5 4 4 3 1 1 1 2 4 5 6 9 13 8 6 6 9 13 13 11 13 21 21 24 25 23 23 20 14 8 14 16 16 18 19 22 26
8 2 3 4 4 4 3 2 0 2 2 3 2 1 1 3 1 3 6 9 10 9 10 7 11 14 11 3 13 18 20 21 21 21 20 22 15 8 12 13 15 19 23 20 23
11 7 7 3 3 2 3 2 2 3 4 3 1 3 1 4 5 3 5 7 8 12 12 9 13 12 13 8 5 11 16 21 24 24 24 16 19 15 17 16 11 14 21 23 24
14 9 7 7 5 3 2 2 3 5 4 4 3 3 2 2 2 3 3 7 9 7 7 8 10 8 10 8 7 6 9 16 20 21 20 15 10 12 18 18 15 15 21 27 28
14 12 10 8 8 3 3 3 3 1 2 6 5 3 3 4 6 1 4 4 9 9 6 6 9 10 15 10 9 13 4 6 13 12 15 17 14 16 16 18 14 14 19 23 25
Wind_Direction
341 339 338 334 324 315 303 290 277 267 260 244 231 231 229 224 218 209 201 207 206 206 206 195 193 196 174 204 215 273 223 215 208 191 177 167 171 181 192 198 190 184 184 171 156
342 342 341 339 335 326 315 302 281 266 255 246 239 227 222 224 220 209 206 208 204 205 201 192 188 193 177 200 274 255 256 216 201 180 181 174 174 184 194 192 205 190 187 177 153
338 338 338 337 334 332 325 315 294 272 257 245 234 227 220 215 216 215 210 210 204 204 191 179 185 188 183 204 220 250 278 186 173 174 170 171 179 189 196 190 214 193 178 172 150
335 337 337 336 333 332 331 321 308 288 264 242 231 220 216 209 189 211 212 209 203 202 195 181 179 188 189 171 197 107 132 140 152 169 177 167 173 186 172 180 172 176 178 169 149
333 334 334 333 334 332 329 324 313 297 272 251 230 219 206 205 207 198 203 205 203 198 200 188 183 181 187 175 177 157 200 183 192 175 183 188 179 182 174 165 168 161 168 161 153
329 332 333 334 337 336 332 330 326 312 286 256 231 215 201 194 206 199 194 199 203 199 197 192 190 182 198 184 181 149 111 153 171 171 195 194 172 171 179 174 165 160 163 161 154
330 332 333 336 339 340 346 352 349 336 308 261 230 209 193 193 198 198 192 192 195 196 193 192 189 175 198 187 192 158 129 141 161 176 180 174 184 166 153 152 154 163 163 162 152
332 334 337 338 336 337 358 2 8 8 350 301 227 190 187 193 193 193 192 192 185 192 186 194 186 179 170 198 174 168 165 131 172 179 178 181 179 174 159 156 162 164 161 158 152
329 334 336 334 333 331 358 3 8 17 10 7 176 168 178 189 187 185 186 192 185 185 193 186 184 179 202 185 177 193 199 179 177 187 199 190 191 176 167 163 166 165 164 160 159
327 333 333 330 333 329 357 357 355 7 356 62 137 137 180 182 186 183 179 185 188 184 187 187 185 192 186 195 200 202 197 177 187 187 224 193 183 175 169 169 172 172 173 168 166
321 328 330 334 340 330 11 25 27 1 31 147 167 168 190 182 175 187 185 179 187 187 182 189 187 196 199 200 234 221 194 172 206 193 211 158 164 185 178 172 175 176 177 177 171
318 324 325 331 333 326 31 43 47 21 64 52 182 166 175 178 177 179 179 175 189 182 185 188 200 201 204 213 216 202 196 173 180 174 174 76 126 162 178 181 178 180 178 177 176
328 322 327 320 330 357 37 46 73 71 83 83 134 145 161 167 179 190 175 189 186 187 192 200 207 197 205 207 197 192 211 173 202 186 213 241 290 195 192 181 181 190 184 186 186
343 332 325 309 324 359 26 38 99 86 111 93 110 118 142 144 168 192 178 167 181 199 195 208 207 205 195 200 198 191 137 154 147 159 149 182 202 122 179 193 187 191 192 193 196
358 341 326 315 323 58 31 109 112 93 183 104 107 141 141 118 186 180 173 183 197 190 184 199 206 193 199 204 197 183 164 137 147 138 133 166 169 180 200 192 199 197 193 193 196
359 350 80 76 53 96 87 93 103 251 87 113 117 152 155 153 147 168 171 160 185 200 190 218 197 194 199 197 204 190 182 165 179 189 226 187 173 203 213 201 201 199 197 196 201
5 79 96 94 94 86 78 74 253 34 106 103 126 128 135 138 150 153 171 180 175 181 194 197 187 193 187 194 193 184 182 168 210 195 246 176 207 195 230 236 201 197 198 196 200
94 100 107 91 75 78 86 56 71 79 82 136 153 155 152 132 146 167 187 188 196 199 197 200 191 196 198 199 208 198 196 209 204 214 171 182 225 217 228 211 204 208 198 196 196
102 115 102 79 59 62 95 61 73 77 69 84 122 184 180 188 169 173 201 207 205 188 224 207 219 198 209 205 197 203 210 220 270 243 209 181 221 243 230 214 211 204 204 212 202
109 105 96 72 72 84 81 101 81 80 81 89 129 159 179 188 208 211 189 198 211 201 203 211 217 219 218 207 216 211 218 216 228 266 233 178 208 235 225 216 203 203 203 209 197
114 82 87 68 110 90 98 105 89 71 82 82 77 137 162 185 201 211 192 180 192 211 205 206 226 188 200 208 208 209 217 221 236 234 266 219 203 223 229 216 205 208 208 210 207
115 120 117 101 100 104 103 104 79 45 43 66 88 117 122 117 189 200 198 197 198 194 200 199 223 215 208 202 212 224 216 214 222 227 240 280 360 203 225 199 213 214 209 201 210
144 140 135 112 122 117 98 86 63 55 40 53 46 113 98 183 185 171 164 187 187 188 204 207 222 211 215 213 214 216 214 223 227 235 232 234 242 241 239 218 222 222 211 203 203
174 167 176 138 130 140 163 163 138 4 345 333 264 294 237 208 164 162 184 180 186 208 213 239 246 248 245 256 208 204 213 216 226 224 232 230 234 241 244 236 234 224 208 205 202
191 203 176 182 214 184 171 229 243 281 304 330 229 164 150 208 200 203 202 206 209 219 241 239 250 247 256 267 245 216 217 218 222 230 241 244 223 239 255 262 249 236 219 198 191
203 211 205 198 211 156 171 227 272 293 279 257 187 218 215 204 207 181 181 201 219 244 244 244 247 243 232 234 224 228 225 221 224 229 233 243 247 219 238 236 248 241 218 208 198
209 213 199 218 194 179 255 247 275 290 9 200 207 202 183 206 208 130 148 142 221 211 226 232 238 237 229 201 215 227 205 207 213 212 221 228 223 233 241 222 232 229 219 215 213
Height
3142 3140 3138 3136 3135 3133 3132 3132 3132 3132 3133 3134 3135 3138 3141 3142 3144 3147 3149 3150 3151 3154 3156 3160 3163 3165 3166 3167 3167 3167 3168 3167 3167 3169 3174 3177 3180 3183 3186 3189 3191 3193 3196 3198 3199
3140 3138 3136 3134 3133 3131 3130 3129 3128 3128 3128 3129 3132 3134 3137 3140 3143 3144 3146 3146 3150 3153 3156 3160 3163 3165 3166 3167 3167 3167 3166 3166 3165 3167 3173 3178 3181 3184 3187 3189 3191 3193 3196 3199 3201
3139 3137 3135 3132 3130 3129 3128 3127 3126 3125 3125 3125 3127 3130 3134 3137 3141 3141 3143 3145 3148 3151 3155 3158 3161 3164 3168 3167 3169 3166 3166 3164 3164 3168 3174 3178 3182 3185 3187 3190 3191 3194 3196 3200 3202
3137 3135 3133 3131 3129 3128 3127 3125 3124 3124 3123 3122 3123 3126 3129 3134 3140 3138 3141 3144 3147 3149 3154 3156 3160 3163 3167 3168 3167 3167 3167 3168 3166 3169 3174 3178 3181 3183 3188 3191 3191 3195 3199 3202 3204
3136 3134 3131 3129 3127 3126 3124 3123 3122 3121 3121 3121 3121 3123 3125 3131 3132 3133 3138 3142 3145 3148 3152 3156 3158 3164 3168 3168 3168 3167 3167 3168 3169 3170 3173 3178 3181 3185 3187 3189 3192 3194 3200 3204 3206
3134 3132 3130 3128 3126 3124 3123 3121 3120 3119 3118 3118 3119 3120 3123 3129 3131 3132 3135 3139 3144 3147 3151 3155 3158 3163 3168 3168 3170 3168 3166 3168 3167 3169 3173 3177 3182 3185 3187 3188 3192 3196 3201 3205 3208
3133 3131 3129 3127 3125 3124 3122 3121 3119 3118 3117 3116 3116 3118 3121 3124 3126 3131 3133 3136 3142 3146 3150 3154 3157 3162 3166 3168 3168 3166 3168 3167 3169 3172 3175 3176 3182 3184 3187 3190 3193 3198 3202 3205 3208
3131 3129 3128 3126 3124 3122 3122 3120 3119 3117 3116 3115 3115 3117 3119 3122 3125 3128 3132 3135 3138 3144 3148 3151 3155 3160 3164 3165 3168 3166 3168 3169 3169 3172 3174 3179 3181 3183 3187 3191 3196 3200 3202 3206 3209
3129 3127 3125 3124 3123 3122 3121 3120 3119 3118 3117 3116 3117 3117 3121 3122 3125 3127 3131 3134 3137 3142 3146 3150 3155 3160 3163 3165 3168 3169 3168 3168 3168 3171 3171 3176 3178 3181 3186 3191 3198 3201 3204 3207 3210
3127 3125 3124 3123 3122 3121 3121 3121 3119 3119 3118 3117 3117 3122 3122 3123 3124 3127 3130 3134 3138 3141 3146 3151 3155 3160 3162 3164 3164 3164 3166 3167 3168 3171 3168 3172 3173 3178 3183 3190 3197 3201 3205 3208 3211
3125 3124 3123 3122 3122 3121 3121 3120 3122 3121 3119 3118 3119 3119 3120 3122 3125 3128 3131 3134 3138 3142 3148 3150 3156 3157 3161 3163 3163 3163 3164 3165 3168 3168 3168 3166 3170 3174 3183 3189 3198 3202 3205 3209 3212
3124 3123 3122 3122 3121 3120 3121 3120 3120 3121 3120 3118 3119 3119 3120 3123 3126 3128 3132 3137 3139 3143 3148 3151 3153 3157 3160 3162 3164 3164 3165 3166 3166 3169 3170 3171 3173 3176 3180 3188 3196 3202 3205 3209 3211
3122 3121 3121 3120 3120 3120 3120 3121 3120 3119 3120 3121 3121 3121 3122 3125 3130 3130 3134 3137 3140 3144 3146 3150 3153 3155 3158 3161 3163 3163 3163 3165 3166 3169 3170 3172 3176 3176 3179 3185 3193 3200 3204 3208 3210
3121 3120 3120 3120 3121 3120 3121 3120 3120 3119 3121 3126 3125 3125 3125 3127 3131 3130 3135 3140 3141 3144 3147 3150 3151 3154 3157 3160 3163 3164 3166 3167 3166 3171 3171 3174 3176 3177 3177 3181 3188 3193 3199 3205 3209
3120 3119 3119 3119 3120 3120 3121 3120 3121 3121 3118 3128 3126 3126 3126 3129 3128 3131 3135 3139 3142 3143 3147 3149 3150 3153 3156 3160 3162 3165 3166 3169 3170 3172 3172 3175 3177 3178 3179 3182 3183 3189 3195 3203 3206
3120 3119 3118 3119 3119 3121 3121 3121 3122 3123 3124 3128 3127 3127 3129 3129 3130 3130 3134 3137 3140 3143 3145 3146 3149 3153 3156 3159 3160 3164 3167 3170 3171 3172 3169 3170 3174 3174 3172 3175 3181 3183 3191 3198 3204
3120 3119 3119 3120 3121 3121 3122 3122 3124 3121 3128 3130 3128 3129 3129 3130 3131 3133 3135 3138 3140 3142 3144 3146 3148 3152 3154 3158 3160 3164 3166 3167 3171 3168 3164 3168 3171 3168 3169 3171 3176 3180 3185 3193 3200
3120 3120 3121 3122 3122 3122 3123 3126 3126 3128 3128 3128 3128 3130 3130 3132 3134 3135 3136 3137 3139 3140 3140 3143 3147 3149 3151 3155 3158 3161 3164 3160 3163 3160 3157 3169 3166 3167 3167 3169 3174 3181 3184 3189 3196
3123 3123 3124 3124 3124 3124 3125 3128 3129 3129 3129 3130 3130 3130 3131 3133 3134 3135 3136 3137 3138 3140 3142 3141 3144 3146 3149 3153 3156 3158 3160 3162 3160 3157 3155 3163 3165 3164 3164 3166 3169 3174 3180 3185 3188
3126 3126 3126 3125 3125 3126 3129 3129 3131 3130 3129 3130 3130 3131 3130 3132 3134 3134 3135 3137 3138 3139 3141 3142 3143 3144 3147 3151 3153 3154 3159 3160 3160 3152 3150 3157 3161 3161 3161 3163 3166 3169 3173 3180 3185
3129 3130 3128 3126 3126 3129 3131 3131 3132 3131 3130 3132 3132 3132 3132 3132 3132 3132 3134 3137 3137 3139 3140 3142 3142 3142 3144 3145 3147 3153 3153 3155 3156 3155 3147 3148 3154 3158 3159 3162 3165 3167 3170 3174 3179
3130 3133 3130 3129 3133 3130 3132 3132 3132 3133 3132 3132 3133 3132 3132 3132 3133 3134 3134 3135 3136 3139 3141 3141 3140 3137 3139 3141 3144 3146 3149 3152 3152 3154 3154 3150 3153 3154 3157 3160 3162 3165 3168 3173 3177
3131 3132 3131 3131 3133 3133 3133 3133 3133 3133 3132 3132 3133 3133 3132 3133 3134 3134 3134 3134 3135 3138 3140 3140 3139 3138 3137 3142 3142 3143 3145 3148 3149 3151 3148 3151 3151 3152 3155 3158 3160 3162 3165 3169 3174
3131 3132 3132 3132 3132 3133 3134 3134 3134 3133 3133 3132 3132 3132 3132 3133 3133 3133 3135 3134 3135 3137 3138 3139 3137 3135 3132 3133 3135 3139 3142 3146 3147 3147 3148 3147 3150 3152 3154 3156 3157 3159 3162 3167 3170
3129 3131 3131 3133 3133 3133 3133 3134 3134 3134 3133 3132 3132 3132 3132 3132 3133 3133 3134 3134 3135 3135 3137 3139 3137 3136 3134 3136 3135 3137 3139 3142 3144 3146 3145 3145 3147 3151 3153 3153 3155 3157 3159 3164 3166
3128 3130 3130 3131 3131 3132 3132 3132 3133 3133 3132 3132 3132 3131 3132 3132 3132 3132 3132 3133 3135 3135 3136 3137 3136 3136 3135 3135 3136 3137 3138 3138 3141 3142 3144 3145 3146 3148 3150 3151 3152 3154 3155 3159 3164
3125 3126 3128 3130 3130 3131 3133 3131 3131 3130 3130 3129 3130 3131 3131 3131 3131 3131 3131 3130 3131 3134 3135 3136 3135 3135 3131 3134 3136 3137 3136 3136 3138 3140 3142 3143 3144 3146 3147 3148 3149 3151 3154 3157 3162